Volver al catálogo

SOLRAD 11A/B PKM

ActivoHEO
NORAD 8752·ROCKET BODY·🇺🇸 United States

Lanzado Mar 15, 1976 desde Cape Canaveral Space Force Station

Loading…

Próximos Pases (próximas 24 horas)

TLE

ActualizadoSource: Space-Track

Época: Sep 7, 2026, 08:06 UTC

1 08752U 76023G   26250.33778644 -.00000435  00000-0  00000-0 0  9990
2 08752  21.6577 356.7515 4383172  58.5139 359.6083  0.41540803 81821

Sigue SOLRAD 11A/B PKM en tiempo real con AllMySat

Download on the App Store